Regional Weather Roundup
Issued by NWS

Home | Current Version | Previous Version | Graphics & Text | Print | Product List | Glossary On
Versions: 1 2 3 4 5 6 7 8 9 10 11 12 13 14 15 16 17 18 19 20 21 22 23 24 25 26 27 28 29 30 31 32 33 34 35 36 37 38 39 40 41 42 43 44 45 46 47 48 49 50
000
ASUS43 KOAX 180902
RWRNE

WEATHER ROUNDUP FOR NEBRASKA
NATIONAL WEATHER SERVICE OMAHA NE
300 AM CST THU DEC 18 2014

NOTES: SATELLITE DATA IS BEING USED TO AUGMENT CLOUD COVER ABOVE
       12000 FEET.
       "FAIR" INDICATES FEW OR NO CLOUDS BELOW 12,000 FEET WITH NO
       SIGNIFICANT WEATHER AND/OR OBSTRUCTIONS TO VISIBILITY.

  * THESE STATIONS DO NOT REPORT WEATHER SUCH AS RAIN...SNOW OR FOG.

NEZ001>004-019>022-054>056-181000-
NEBRASKA PANHANDLE

CITY           SKY/WX    TMP DP  RH WIND       PRES   REMARKS
SCOTTSBLUFF    FOG       14  12  92 N3        30.02R VSB 1/4
ALLIANCE       FOG       17  14  88 W7        30.00R VSB 1/4 WCI   8
CHADRON        FOG       16  14  92 SW5       30.02S VSB 1/4 WCI   9
SIDNEY         PTCLDY    11   8  88 SW6       29.98F WCI   1
$$

NEZ057>060-069>072-079>082-181000-
SOUTHWEST NEBRASKA

CITY           SKY/WX    TMP DP  RH WIND       PRES   REMARKS
NORTH PLATTE   CLOUDY    24  22  91 S7        30.09R FOG     WCI  16
IMPERIAL       CLOUDY    25  22  88 SW6       30.05F WCI  18
MCCOOK         LGT SNOW  24  22  91 SE3       30.10F FOG
$$

NEZ005>010-023>029-035>040-094-181000-
NORTH CENTRAL NEBRASKA

CITY           SKY/WX    TMP DP  RH WIND       PRES   REMARKS
VALENTINE      CLOUDY    24  21  88 SW9       30.07S WCI  14
BROKEN BOW     CLOUDY    24  23  96 S7        30.11R FOG     WCI  16
ORD            CLOUDY    23  19  85 SE6       30.14S WCI  16
$$

NEZ041-046>049-061>064-073>077-083>087-181000-
SOUTH CENTRAL NEBRASKA

CITY           SKY/WX    TMP DP  RH WIND       PRES   REMARKS
GRAND ISLAND   LGT SNOW  23  21  92 E5        30.18S FOG     WCI  17
HASTINGS       CLOUDY    24  21  88 SE3       30.15S
KEARNEY *      CLOUDY    23  19  86 E5        30.15R WCI  17
$$

NEZ011>018-030>034-042>045-181000-
NORTHEAST NEBRASKA

CITY           SKY/WX    TMP DP  RH WIND       PRES   REMARKS
NORFOLK        CLOUDY    25  19  78 SE6       30.19S WCI  18
COLUMBUS *     MOCLDY    25  16  68 E5        30.21S WCI  19
TEKAMAH        CLOUDY    27  20  75 E5        30.25S WCI  22
$$

NEZ050>053-065>068-078-088>093-181000-
SOUTHEAST NEBRASKA

CITY           SKY/WX    TMP DP  RH WIND       PRES   REMARKS
LINCOLN        CLOUDY    27  20  75 E5        30.23S WCI  22
OMAHA EPPLEY   CLOUDY    28  21  75 E7        30.25F WCI  21
FALLS CITY     LGT SNOW  27  25  92 E5        30.22F FOG     WCI  22
$$

NEZ044-045-051>053-067-181000-
OMAHA AREA

CITY           SKY/WX    TMP DP  RH WIND       PRES   REMARKS
OMAHA EPPLEY   CLOUDY    28  21  75 E7        30.25F WCI  21
OFFUTT AFB     CLOUDY    28  22  76 E6        30.23S WCI  22
$$



USA.gov is the U.S. government's official web portal to all federal, state and local government web resources and services.